Flag for Germany Weather past 2 weeks in Emmendingen, Baden-Württemberg, Germany

Now
69 °F

Clear.


Feels Like: 69 °F
Forecast: 59 / 91 °F
Wind: 1 mph from Northwest

Location: Lahr

Current Time: Jul 1, 2015 at 12:25:25 AM

Latest Report: Jul 1, 2015 at 12:00 AM


Visibility: 28 mi

Pressure: 30.06 "Hg

Humidity: 74%

Dew point: 60 °F

Location of EmmendingenLocation

Historic Weather in Emmendingen — Graph

°F

Emmendingen temperature yesterday

Maximum temperature yesterday: 86 °F (at 6:00 PM)
Minimum temperature yesterday: 60 °F (at 6:00 AM)
Average temperature yesterday: 73 °F

Past Weeks' High & Low Weather Summary

 TemperatureHumidityPressure
High86 °F (Jun 30, 6:00 PM)99% (Jun 19, 2:00 AM)30.25 "Hg (Jun 19, 2:00 AM)
Low47 °F (Jun 24, 6:00 AM)32% (Jun 26, 4:00 PM)29.75 "Hg (Jun 22, 8:00 PM)
Average64 °F70%30.11 "Hg
* Reported Jun 15 11:00 PM — Jun 30 11:00 PM, Emmendingen, Weather by CustomWeather, © 2015

Note: Actual official high and low records may vary slightly from our data, if they occured in-between our weather recording intervals... More about our weather records

Advertising

Emmendingen weather history for previous 24 hours

 ConditionsComfort  
Time TempWeatherWind HumidityBarometerVisibility
11:00 PM
Tue, Jun 30
72 °FClear.1 mph64%30.05 "Hg25 mi
10:00 PM73 °FClear.2 mph63%30.04 "Hg25 mi
9:00 PM79 °FSunny.3 mph53%30.02 "Hg34 mi
8:00 PM84 °FPassing clouds.6 mph44%30.02 "Hg34 mi
7:00 PM85 °FPassing clouds.6 mph43%30.02 "Hg34 mi
6:00 PM86 °FPassing clouds.7 mph42%30.03 "Hg37 mi
4:00 PM86 °FPassing clouds.6 mph43%30.05 "Hg31 mi
3:00 PM85 °FPassing clouds.3 mph45%30.07 "Hg31 mi
2:00 PM83 °FPassing clouds.5 mph44%30.09 "Hg31 mi
1:00 PM82 °FPassing clouds.3 mph48%30.11 "Hg31 mi
12:00 PM78 °FPassing clouds.3 mph54%30.12 "Hg31 mi
11:00 AM76 °FPassing clouds.2 mph58%30.13 "Hg31 mi
10:00 AM72 °FPassing clouds.2 mph63%30.14 "Hg31 mi
9:00 AM69 °FPassing clouds.2 mph68%30.15 "Hg31 mi
8:00 AM66 °FPassing clouds.1 mph75%30.14 "Hg31 mi
7:00 AM62 °FPassing clouds.1 mph87%30.14 "Hg31 mi
6:00 AM60 °FPassing clouds.1 mph94%30.14 "Hg28 mi
5:00 AM61 °FClear.1 mph93%30.14 "Hg15 mi
4:00 AM62 °FClear.1 mph93%30.14 "Hg17 mi
3:00 AM63 °FClear.1 mph95%30.14 "Hg14 mi
2:00 AM63 °FClear.1 mph90%30.15 "Hg19 mi
1:00 AM67 °FClear.1 mph82%30.15 "Hg22 mi
12:00 AM68 °FClear.1 mph83%30.15 "Hg25 mi
Weather by CustomWeather, © 2015

See weather overviewHow to use our weather pages